[[{"header":{"parameterUnit":"m.s-1","parameterCategory":1,"la1":30.2991,"la2":30.254,"lo1":-89.0895,"lo2":-89.0444,"dy":0.0017,"dx":0.0017,"nx":28,"ny":28,"refTime":"2024-06-22T09:00:00:Z","depth":0,"parameterNumber":2,"parameterNumberName":"U-component_of_WINDS"},"data":[0,0,0,0,0,0,0,0,0,0,0,0,0,0,0,0,0,0,0,0,0,0,0,0,0,0,0,0,0,0,0,0,0,0,0,0,0,0,0,0,0,0,0,0,0,0,0,0,0,0,0,0,0,0,0,0,0,0,-0.0004,-0.0004,0,0.0008,0.0008,0.0008,0.003,0.0031,0.0031,0.0032,0.0043,0.0043,0.0043,0,0,0,0,0,0,0,0,0,0,0,0,0,-0.0009,-0.0009,-0.0004,-0.0004,-0.0004,0.0008,0.0008,0.0008,0.003,0.0031,0.0031,0.0032,0.0043,0.0043,0.0043,0,0,0,0,0,0,0,0,0,0,0,0,0,-0.0003,-0.0009,-0.0004,0.0008,0.001,0.0008,0.0008,0.0008,0.003,0.0031,0.0031,0.0032,0.0043,0.0043,0.0043,0.0029,0,0,0.0042,0.0042,0,0,0,0,0,0,0,0,-0.0003,-0.0003,0.0006,0.0008,0.0009,0.0018,0.0011,0.0015,0.003,0.0022,0.0032,0.0032,0.0034,0.0035,0.0036,0.0029,0.003,0.0042,0.0042,0.0042,0.0042,0,0,0,0,0,0,0,-0.0004,-0.0003,0.0,0.0007,0.0008,0.0013,0.0015,0.0012,0.0024,0.0023,0.0025,0.0026,0.0035,0.0036,0.0036,0.003,0.0042,0.0042,0.0042,0.0042,0.0013,0.0012,0,0,0,0,0,0,-0.0006,-0.0004,0.0,0.0001,0.0004,0.0013,0.0015,0.0015,0.0025,0.0027,0.0025,0.0027,0.0036,0.0036,0.0037,0.002,0.0042,0.0042,0.0042,0.0013,0.0013,0.0012,0,0,0,0,0,0,-0.0006,-0.0006,-0.0,-0.0001,0.0,0.0012,0.0012,0.0014,0.0015,0.0026,0.0029,0.0024,0.0036,0.0037,0.0031,0.0021,0.0042,0.0042,0.0014,0.0013,0.0012,-0.0012,0,0,0,0,0,0,-0.0006,-0.0006,-0.0011,-0.0001,0.0,-0.0007,0.0011,0.0014,0.0015,0.0017,0.0025,0.0027,0.0037,0.0031,0.003,0.0021,0.0042,0.0015,0.0014,0.0013,-0.001,-0.0014,-0.0017,0,0,0,0,0,-0.0006,-0.0019,-0.0011,-0.0011,-0.0006,-0.0007,-0.0006,0.0005,0.0014,0.0009,0.0016,0.0027,0.0023,0.003,0.003,0.002,0.0016,0.0014,0.0013,-0.0009,-0.0013,-0.0017,0,0,0,0,0,0,-0.003,-0.0017,-0.0009,-0.0018,-0.0014,-0.0003,-0.001,0.0,0.0002,0.0003,0.0017,0.0019,0.0011,0.0015,0.0023,0.0007,0.0021,0.0019,0.0004,0.0001,-0.0003,-0.0004,0.0042,0,0,0,0,0,-0.0036,-0.0038,-0.0027,-0.0036,-0.0034,-0.0022,-0.0022,-0.0014,-0.0009,-0.0007,-0.0,0.0004,0.0003,0.0002,0.0002,-0.0009,-0.0007,-0.0016,-0.0019,-0.0021,-0.0024,-0.003,-0.0034,0.0007,0.0007,0.0007,0,0,-0.005,-0.0043,-0.0045,-0.0041,-0.0036,-0.0039,-0.0021,-0.0024,-0.0026,-0.0008,-0.0014,-0.0008,-0.0003,-0.0012,-0.0015,-0.0008,-0.0034,-0.0023,-0.0026,-0.0026,-0.0032,-0.0036,-0.0039,0.0006,0.0006,0.0006,0,0,-0.0075,-0.007,-0.0077,-0.0073,-0.0066,-0.0058,-0.006,-0.0051,-0.0047,-0.0052,-0.0038,-0.004,-0.0041,-0.0038,-0.0037,-0.006,-0.005,-0.006,-0.0078,-0.0084,-0.0087,-0.009,-0.0099,-0.0103,-0.0062,-0.0062,-0.0062,0,-0.0093,-0.0096,-0.0082,-0.0087,-0.0085,-0.0068,-0.0076,-0.0072,-0.0066,-0.0066,-0.0058,-0.0059,-0.0054,-0.0062,-0.0068,-0.0067,-0.0069,-0.0062,-0.0088,-0.009,-0.0093,-0.0102,-0.0105,-0.0063,-0.0063,-0.0063,-0.0063,0,-0.0118,-0.012,-0.0127,-0.0121,-0.0121,-0.0127,-0.0114,-0.0115,-0.0106,-0.0099,-0.0105,-0.0098,-0.0096,-0.0097,-0.0089,-0.0105,-0.01,-0.009,-0.0076,-0.0098,-0.0106,-0.011,-0.0065,-0.0065,-0.0064,-0.0064,0,0,-0.016,-0.0146,-0.0149,-0.0146,-0.0137,-0.0139,-0.0144,-0.0142,-0.0143,-0.0139,-0.0144,-0.0145,-0.0135,-0.0133,-0.0124,-0.013,-0.015,-0.0119,-0.0118,-0.0126,-0.0168,-0.0177,-0.0181,-0.0142,-0.0143,-0.0143,-0.0168,0,-0.0185,-0.0193,-0.018,-0.0191,-0.0193,-0.0176,-0.0181,-0.0176,-0.0169,-0.017,-0.0162,-0.0164,-0.015,-0.0149,-0.0154,-0.0146,-0.0158,-0.0144,-0.0147,-0.0148,-0.0151,-0.0185,-0.0194,-0.0218,-0.0171,-0.0172,-0.0172,0,-0.0215,-0.0212,-0.0224,-0.0214,-0.0214,-0.0219,-0.0216,-0.0217,-0.0211,-0.0205,-0.0203,-0.0192,-0.0197,-0.0182,-0.0189,-0.0179,-0.018,-0.0176,-0.0177,-0.0178,-0.0162,-0.0188,-0.0225,-0.023,-0.0177,-0.0177,-0.0176,0,-0.0246,-0.0245,-0.0252,-0.025,-0.0238,-0.0242,-0.0237,-0.0231,-0.023,-0.0227,-0.0227,-0.0225,-0.0224,-0.0223,-0.0212,-0.0202,-0.022,-0.0204,-0.0217,-0.0217,-0.0222,-0.0223,-0.0262,-0.022,-0.022,-0.022,-0.022,0,-0.0276,-0.0284,-0.0265,-0.027,-0.0278,-0.0263,-0.0272,-0.0266,-0.026,-0.0263,-0.0247,-0.025,-0.0235,-0.0236,-0.0227,-0.0234,-0.0234,-0.023,-0.0228,-0.0232,-0.0233,-0.0234,-0.0232,-0.0221,-0.0221,-0.0221,-0.022,0,-0.0313,-0.0301,-0.0307,-0.0295,-0.0293,-0.0299,-0.0289,-0.0293,-0.0285,-0.0289,-0.0289,-0.0276,-0.0277,-0.0265,-0.0263,-0.0257,-0.0269,-0.0263,-0.0271,-0.027,-0.0283,-0.0283,-0.0326,-0.0331,-0.0284,-0.0285,-0.0285,0,-0.0334,-0.0339,-0.0328,-0.0329,-0.0325,-0.0326,-0.0325,-0.0311,-0.0311,-0.0304,-0.0309,-0.0308,-0.0307,-0.0309,-0.03,-0.0299,-0.0294,-0.0309,-0.0294,-0.0298,-0.0296,-0.0296,-0.0297,-0.0313,-0.0313,-0.0314,-0.0314,0,-0.0372,-0.0366,-0.0365,-0.0363,-0.0362,-0.0359,-0.0356,-0.0357,-0.0341,-0.0342,-0.0343,-0.0342,-0.034,-0.034,-0.0337,-0.0332,-0.0321,-0.0319,-0.0322,-0.0327,-0.0332,-0.0331,-0.0282,-0.0318,-0.0318,-0.0318,-0.0317,-0.0317,-0.0403,-0.0407,-0.04,-0.04,-0.0395,-0.0392,-0.0395,-0.0386,-0.0387,-0.0384,-0.0375,-0.0377,-0.0371,-0.0366,-0.0362,-0.0364,-0.0357,-0.0361,-0.0362,-0.0364,-0.0367,-0.0331,-0.0363,-0.0363,-0.0363,-0.0363,-0.0362,0,-0.0442,-0.0436,-0.0436,-0.0431,-0.0431,-0.0419,-0.0414,-0.0415,-0.0417,-0.0412,-0.0411,-0.0412,-0.0411,-0.0402,-0.04,-0.0404,-0.0399,-0.0404,-0.0405,-0.0404,-0.0372,-0.0371,-0.0408,-0.0408,-0.0408,-0.0408,-0.0408,-0.0408,-0.0462,-0.0469,-0.0462,-0.0466,-0.046,-0.0462,-0.046,-0.0457,-0.0453,-0.0455,-0.0454,-0.0447,-0.0441,-0.0438,-0.0438,-0.0435,-0.0436,-0.0443,-0.0439,-0.041,-0.0406,-0.0402,-0.04,-0.0443,-0.0443,-0.047,-0.0471,-0.0471]},{"header":{"parameterUnit":"m.s-1","parameterCategory":1,"la1":30.2991,"la2":30.254,"lo1":-89.0895,"lo2":-89.0444,"dy":0.0017,"dx":0.0017,"nx":28,"ny":28,"refTime":"2024-06-22T09:00:00:Z","depth":0,"parameterNumber":3,"parameterNumberName":"V-component_of_WINDS"},"data":[0,0,0,0,0,0,0,0,0,0,0,0,0,0,0,0,0,0,0,0,0,0,0,0,0,0,0,0,0,0,0,0,0,0,0,0,0,0,0,0,0,0,0,0,0,0,0,0,0,0,0,0,0,0,0,0,0,0,-1.4629,-1.4629,0,-1.4622,-1.4622,-1.4622,-1.4623,-1.4624,-1.4624,-1.4624,-1.4617,-1.4617,-1.4616,0,0,0,0,0,0,0,0,0,0,0,0,0,-1.4642,-1.4642,-1.4629,-1.4629,-1.4629,-1.4622,-1.4622,-1.4622,-1.4623,-1.4624,-1.4624,-1.4624,-1.4617,-1.4617,-1.4616,0,0,0,0,0,0,0,0,0,0,0,0,0,-1.4636,-1.4642,-1.4629,-1.4629,-1.4628,-1.4622,-1.4622,-1.4622,-1.4623,-1.4624,-1.4624,-1.4624,-1.4617,-1.4617,-1.4616,-1.461,0,0,-1.4615,-1.4615,0,0,0,0,0,0,0,0,-1.4637,-1.4636,-1.4629,-1.4629,-1.4628,-1.4624,-1.4624,-1.4618,-1.4623,-1.4625,-1.4624,-1.4624,-1.4619,-1.4618,-1.4617,-1.4609,-1.4609,-1.4615,-1.4614,-1.4614,-1.4614,0,0,0,0,0,0,0,-1.4637,-1.4636,-1.4626,-1.4629,-1.4628,-1.4629,-1.4628,-1.4623,-1.4621,-1.4625,-1.4625,-1.4624,-1.4619,-1.4617,-1.4617,-1.4609,-1.4615,-1.4614,-1.4614,-1.4614,-1.4596,-1.4596,0,0,0,0,0,0,-1.4638,-1.4636,-1.4626,-1.4626,-1.4633,-1.4628,-1.4628,-1.4625,-1.4621,-1.4621,-1.4624,-1.4625,-1.4618,-1.4617,-1.4616,-1.4608,-1.4614,-1.4614,-1.4614,-1.4596,-1.4596,-1.4596,0,0,0,0,0,0,-1.4638,-1.4637,-1.4627,-1.4631,-1.463,-1.4628,-1.4625,-1.4625,-1.4623,-1.4621,-1.462,-1.4623,-1.4618,-1.4617,-1.4611,-1.4608,-1.4614,-1.4613,-1.4597,-1.4596,-1.4596,-1.4593,0,0,0,0,0,0,-1.4638,-1.4637,-1.4634,-1.4631,-1.463,-1.4622,-1.4625,-1.4625,-1.4622,-1.4623,-1.4619,-1.4619,-1.4618,-1.4612,-1.4611,-1.4608,-1.4613,-1.4597,-1.4596,-1.4596,-1.4593,-1.4592,-1.4592,0,0,0,0,0,-1.4639,-1.4634,-1.4634,-1.4633,-1.4627,-1.4622,-1.4621,-1.462,-1.4622,-1.462,-1.4618,-1.4619,-1.4609,-1.4611,-1.461,-1.4607,-1.4597,-1.4597,-1.4596,-1.4593,-1.4592,-1.4592,0,0,0,0,0,0,-1.4636,-1.4633,-1.4634,-1.4627,-1.4625,-1.4622,-1.4618,-1.4619,-1.4616,-1.4616,-1.4616,-1.4615,-1.4609,-1.4607,-1.461,-1.46,-1.4603,-1.4602,-1.4602,-1.4601,-1.46,-1.46,-1.4612,0,0,0,0,0,-1.4635,-1.4631,-1.4629,-1.4623,-1.4622,-1.462,-1.4618,-1.4618,-1.4615,-1.4614,-1.4612,-1.4609,-1.4606,-1.4603,-1.46,-1.4593,-1.4592,-1.459,-1.4589,-1.4589,-1.4588,-1.4585,-1.4584,-1.4594,-1.4594,-1.4594,0,0,-1.4632,-1.463,-1.4628,-1.4623,-1.4621,-1.4617,-1.4619,-1.4615,-1.4612,-1.4613,-1.4608,-1.4607,-1.4603,-1.4597,-1.4595,-1.4596,-1.4585,-1.4588,-1.4588,-1.4587,-1.4584,-1.4583,-1.4582,-1.4594,-1.4594,-1.4594,0,0,-1.4625,-1.4623,-1.4618,-1.4616,-1.4613,-1.4612,-1.4611,-1.4608,-1.4607,-1.4602,-1.4603,-1.46,-1.4593,-1.4591,-1.4589,-1.4581,-1.4582,-1.458,-1.4577,-1.4573,-1.4572,-1.4571,-1.4569,-1.4568,-1.458,-1.458,-1.458,0,-1.4622,-1.4616,-1.4616,-1.4611,-1.4609,-1.461,-1.4606,-1.4604,-1.46,-1.4598,-1.46,-1.4592,-1.459,-1.4583,-1.4581,-1.458,-1.4579,-1.458,-1.4572,-1.4572,-1.4571,-1.4568,-1.4567,-1.4579,-1.4579,-1.4579,-1.4579,0,-1.4612,-1.4608,-1.4605,-1.4601,-1.4598,-1.4594,-1.4593,-1.4591,-1.4591,-1.459,-1.4584,-1.4582,-1.4578,-1.4577,-1.4577,-1.457,-1.4571,-1.4573,-1.4575,-1.457,-1.4567,-1.4566,-1.4579,-1.4579,-1.4579,-1.4579,0,0,-1.4602,-1.4599,-1.4598,-1.4596,-1.4593,-1.459,-1.4586,-1.4582,-1.458,-1.4577,-1.4573,-1.4568,-1.457,-1.4567,-1.4567,-1.4564,-1.4558,-1.4566,-1.4566,-1.4565,-1.4551,-1.455,-1.4549,-1.4559,-1.4559,-1.4559,-1.4551,0,-1.4595,-1.4587,-1.4587,-1.458,-1.4576,-1.4578,-1.4574,-1.4572,-1.4571,-1.4568,-1.4567,-1.4563,-1.4565,-1.4564,-1.4561,-1.456,-1.4556,-1.456,-1.4556,-1.4555,-1.4556,-1.4547,-1.4546,-1.4539,-1.455,-1.455,-1.455,0,-1.4585,-1.4582,-1.4574,-1.4572,-1.4571,-1.4567,-1.4564,-1.4561,-1.4558,-1.4558,-1.4556,-1.4556,-1.4552,-1.4555,-1.4549,-1.4552,-1.4551,-1.455,-1.4549,-1.4549,-1.4552,-1.4546,-1.4536,-1.4535,-1.4548,-1.4549,-1.4549,0,-1.4578,-1.4572,-1.4567,-1.4566,-1.4563,-1.4561,-1.456,-1.4557,-1.4555,-1.4552,-1.4551,-1.4548,-1.4546,-1.4543,-1.4543,-1.4545,-1.4537,-1.454,-1.4536,-1.4536,-1.4534,-1.4534,-1.4524,-1.4534,-1.4534,-1.4534,-1.4534,0,-1.4569,-1.4565,-1.4564,-1.4561,-1.4556,-1.4556,-1.4551,-1.455,-1.4548,-1.4545,-1.4546,-1.4543,-1.4543,-1.454,-1.4539,-1.4534,-1.4534,-1.4533,-1.4533,-1.4533,-1.4533,-1.4531,-1.4532,-1.4533,-1.4533,-1.4533,-1.4533,0,-1.4561,-1.456,-1.4555,-1.4553,-1.4552,-1.4549,-1.4547,-1.4544,-1.4544,-1.4539,-1.4538,-1.4537,-1.4534,-1.4533,-1.4529,-1.4529,-1.4523,-1.4523,-1.4524,-1.4524,-1.452,-1.452,-1.4508,-1.4506,-1.4517,-1.4517,-1.4517,0,-1.4555,-1.4551,-1.4549,-1.4547,-1.4546,-1.4542,-1.454,-1.4541,-1.4538,-1.4536,-1.4533,-1.453,-1.4527,-1.4521,-1.452,-1.4517,-1.4517,-1.4513,-1.4516,-1.4516,-1.4517,-1.4517,-1.4516,-1.4512,-1.4512,-1.4512,-1.4512,0,-1.4545,-1.4545,-1.4542,-1.4539,-1.4536,-1.4534,-1.4532,-1.453,-1.453,-1.4527,-1.4524,-1.4522,-1.4517,-1.4514,-1.4511,-1.451,-1.4511,-1.4511,-1.451,-1.4509,-1.4509,-1.4509,-1.4521,-1.4511,-1.4511,-1.4511,-1.4511,-1.4511,-1.4537,-1.4534,-1.4532,-1.4529,-1.4527,-1.4525,-1.4522,-1.4522,-1.4519,-1.4515,-1.4516,-1.4512,-1.451,-1.4506,-1.4504,-1.4501,-1.4503,-1.4501,-1.4501,-1.45,-1.45,-1.451,-1.4501,-1.4501,-1.4501,-1.4501,-1.4501,0,-1.4527,-1.4526,-1.4523,-1.452,-1.4517,-1.4519,-1.4516,-1.4514,-1.451,-1.4509,-1.4506,-1.4502,-1.4499,-1.4498,-1.4494,-1.4492,-1.4492,-1.4491,-1.4491,-1.4491,-1.4499,-1.45,-1.4491,-1.4491,-1.4491,-1.4491,-1.4491,-1.4491,-1.4521,-1.4516,-1.4516,-1.451,-1.4509,-1.4505,-1.4504,-1.4502,-1.4501,-1.4496,-1.4493,-1.4493,-1.4491,-1.4488,-1.4485,-1.4485,-1.4484,-1.4482,-1.4482,-1.4489,-1.449,-1.4491,-1.4492,-1.4482,-1.4482,-1.4475,-1.4475,-1.4474]}]]